Mt. Pocono, PA

5:10 AM EDT on March 28, 2017 (GMT -0400)
Pocono Mountains Municipal

Weather History for KMPO - April, 2013

Change the Weather History Date:

Monday, April 22, 2013

  Actual Average Record
Temperature  
Mean Temperature 42 °F 48 °F  
Max Temperature 51 °F 58 °F 81 °F (1973)
Min Temperature 32 °F 38 °F 17 °F (1922)
Degree Days  
Heating Degree Days 23 17  
Month to date heating degree days 442 469  
Since 1 July heating degree days 6314 6567  
Cooling Degree Days 0 0  
Month to date cooling degree days 1 0  
Year to date cooling degree days 1 0  
Moisture  
Dew Point 22 °F    
Average Humidity 54    
Maximum Humidity 70    
Minimum Humidity 38    
Precipitation  
Precipitation 0.00 in 0.11 in 1.59 in (1991)
Month to date precipitation 2.08 3.12  
Year to date precipitation 8.94 12.21  
Sea Level Pressure  
Sea Level Pressure 30.55 in    
Wind  
Wind Speed 10 mph (ESE)    
Max Wind Speed 21 mph    
Max Gust Speed 29 mph    
Visibility 10 miles    
Events      
T = Trace of Precipitation, MM = Missing Value Source: NWS Daily Summary

Daily Weather History Graph

Daily Weather History Graph

Search for Another Location

Airport or City:

Trip Planner

Search our weather history database for the weather conditions in past years. The results will help you decide how hot, cold, wet, or windy it might be!

Date:

Astronomy

Apr. 22, 2013 Rise Set
Actual Time 6:11 AM EDT 7:49 PM EDT
Civil Twilight 5:42 AM EDT 8:18 PM EDT
Nautical Twilight 5:07 AM EDT 8:53 PM EDT
Astronomical Twilight 4:29 AM EDT 9:31 PM EDT
Moon 4:34 PM EDT (4/22) 4:06 AM EDT (4/22)
Length of Visible Light 14h 36m
Length of Day
13h 37m
Waxing Gibbous, 87% of the Moon is Illuminated
Apr 22
Waxing Gibbous
Apr 25
Full
May 2
Last Quarter
May 9
New
May 18
First Quarter

Hourly Weather History & Observations

Time (EDT) Temp. Windchill Dew Point Humidity Pressure Visibility Wind Dir Wind Speed Gust Speed Precip Events Conditions
12:53 AM 37.0 °F 31.6 °F 19.0 °F 48% 30.61 in 10.0 mi East 6.9 mph - N/A   Clear
1:53 AM 36.0 °F 30.3 °F 19.0 °F 50% 30.60 in 10.0 mi East 6.9 mph - N/A   Clear
2:53 AM 36.0 °F 33.3 °F 17.1 °F 46% 30.58 in 10.0 mi East 3.5 mph - N/A   Clear
3:53 AM 36.0 °F 31.1 °F 17.1 °F 46% 30.57 in 10.0 mi East 5.8 mph - N/A   Clear
4:53 AM 34.0 °F 29.8 °F 16.0 °F 48% 30.58 in 10.0 mi East 4.6 mph - N/A   Clear
5:53 AM 33.1 °F 27.7 °F 16.0 °F 50% 30.60 in 10.0 mi East 5.8 mph - N/A   Clear
6:53 AM 32.0 °F 27.5 °F 18.0 °F 56% 30.60 in 10.0 mi East 4.6 mph - N/A   Clear
7:53 AM 36.0 °F 28.5 °F 25.0 °F 64% 30.61 in 10.0 mi ESE 10.4 mph - N/A   Clear
8:53 AM 37.9 °F 29.6 °F 21.9 °F 53% 30.61 in 10.0 mi ESE 13.8 mph 19.6 mph N/A   Clear
9:53 AM 42.1 °F 34.9 °F 21.9 °F 45% 30.61 in 10.0 mi ESE 13.8 mph 24.2 mph N/A   Clear
10:53 AM 44.1 °F 37.1 °F 21.0 °F 40% 30.60 in 10.0 mi SE 15.0 mph 21.9 mph N/A   Clear
11:53 AM 46.0 °F 40.2 °F 24.1 °F 42% 30.58 in 10.0 mi ESE 12.7 mph 21.9 mph N/A   Clear
12:53 PM 46.9 °F - 25.0 °F 42% 30.57 in 10.0 mi ESE 15.0 mph 24.2 mph N/A   Clear
1:53 PM 48.9 °F - 27.0 °F 43% 30.55 in 10.0 mi SE 12.7 mph 24.2 mph N/A   Clear
2:53 PM 48.9 °F - 26.1 °F 41% 30.51 in 10.0 mi SSE 9.2 mph 21.9 mph N/A   Clear
3:53 PM 50.0 °F - 26.1 °F 39% 30.50 in 10.0 mi SE 11.5 mph 21.9 mph N/A   Clear
4:53 PM 48.9 °F - 26.1 °F 41% 30.49 in 10.0 mi ESE 13.8 mph 24.2 mph N/A   Clear
5:53 PM 46.9 °F - 26.1 °F 44% 30.49 in 10.0 mi ESE 12.7 mph 18.4 mph N/A   Partly Cloudy
6:53 PM 45.0 °F 39.3 °F 27.0 °F 49% 30.49 in 10.0 mi ESE 11.5 mph 23.0 mph N/A   Clear
7:53 PM 42.1 °F 36.6 °F 23.0 °F 47% 30.48 in 10.0 mi ESE 9.2 mph 18.4 mph N/A   Clear
8:53 PM 41.0 °F 35.8 °F 18.0 °F 40% 30.48 in 10.0 mi ESE 8.1 mph - N/A   Clear
9:53 PM 37.9 °F 32.1 °F 24.1 °F 57% 30.49 in 10.0 mi SSE 8.1 mph - N/A   Clear
10:53 PM 35.1 °F 31.0 °F 26.1 °F 70% 30.47 in 10.0 mi SE 4.6 mph - N/A   Clear
11:53 PM 35.1 °F 29.3 °F 27.0 °F 72% 30.46 in 10.0 mi ESE 6.9 mph - N/A   Clear